Regional Weather Roundup
Issued by NWS Green Bay, WI

Home | Current Version | Previous Version | Graphics & Text | Print | Product List | Glossary Off
Versions: 1 2 3 4 5 6 7 8 9 10 11 12 13 14 15 16 17 18 19 20 21 22 23 24 25 26 27 28 29 30 31 32 33 34 35 36 37 38 39 40 41 42 43 44 45 46 47 48 49 50

000
ASUS43 KGRB 300111
RWRGRB

NORTH-CENTRAL AND NORTHEAST WISCONSIN REGIONAL WEATHER ROUNDUP
NATIONAL WEATHER SERVICE GREEN BAY WI
800 PM CDT WED JUL 29 2015

WIZ005-009-010>012-018-019-300200-
NORTH CENTRAL WISCONSIN

CITY           SKY/WX    TMP DP  RH WIND       PRES   REMARKS
IRONWOOD       MOCLDY    72  57  60 SW9       29.79S
MANITOWISH WTR CLOUDY    71  56  58 SW6       29.86S
ARBOR VITAE    CLOUDY    72  55  54 W8        29.87S
EAGLE RIVER    CLOUDY    72  50  45 W9G17     29.86R
LAND O LAKES   CLOUDY    72  53  50 W8        29.87R
RHINELANDER    CLOUDY    74  52  46 W13G20    29.89R
PHILLIPS       PTCLDY    73  55  53 W5        29.88R
ANTIGO         CLEAR     72  53  51 W13       29.90S
TOMAHAWK       PTCLDY    72  54  52 W9        29.90R
MERRILL        NOT AVBL
$$

WIZ013-073-300200-
NORTHEAST WISCONSIN

CITY           SKY/WX    TMP DP  RH WIND       PRES   REMARKS
IRON MOUNTAIN  CLOUDY    75  55  49 SW6       29.83R
MARINETTE      PTCLDY    77  54  44 W6        29.84S
OCONTO         MOCLDY    76  56  50 W5        29.86R
$$

WIZ017-030-035>037-045-300200-
CENTRAL WISCONSIN

CITY           SKY/WX    TMP DP  RH WIND       PRES   REMARKS
MEDFORD        CLEAR     72  55  55 W9        29.92R
WAUSAU         CLEAR     76  53  44 W13G23    29.89S
MOSINEE        PTCLDY    73  55  53 W9        29.92S
MARSHFIELD     CLEAR     74  53  48 W10       29.93R
WISC RAPIDS    CLEAR     77  51  40 W8        29.94S
STEVENS POINT  CLEAR     75  54  47 W10       29.93R
WAUPACA        PTCLDY    80  51  36 W7        29.92R
SHAWANO        PTCLDY    78  53  40 W5        29.89R
CLINTONVILLE   PTCLDY    77  50  38 W8        29.89S
$$

WIZ038-039-048-051-300200-
FOX VALLEY

CITY           SKY/WX    TMP DP  RH WIND       PRES   REMARKS
NWS GREEN BAY  PTCLDY    77  54  44 W10       29.88S
APPLETON       PTCLDY    77  48  36 W17G23    29.91
OSHKOSH        CLEAR     78  53  41 W5        29.91R
FOND DU LAC    CLEAR     78  54  43 W7        29.92R
$$

WIZ022-050-052-300200-
EAST CENTRAL WISCONSIN

CITY           SKY/WX    TMP DP  RH WIND       PRES   REMARKS
STURGEON BAY   CLOUDY    77  57  50 W9        29.88S
MANITOWOC      CLEAR     79  53  40 MISG      29.89R
SHEBOYGAN      CLEAR     77  54  44 W8        29.90R
$$

LMZ563-521-522-541>543-300200-
LAKESHORE

STATION/POSITION TIME  TEMP    WIND        PRES    VSBY  WAVE
                       AIR SEA DIR/SP/G                  HT/PER
                 (UTC) (F)     (DEG/KT/KT) (MB)    (MI)  (FT/S)
SHEBOYGAN LKSHOR 0100   81     280/ 11/ 14 1012.2R
KEWAUNEE LKSHORE 0000   81                   N/A
ALGOMA MARINA    0042          330/  5/ 10   N/A
TWO RIVERS CG    0025   81                   N/A       6   1
NORTHPORT PIER   0000   78     280/  8/ 14 1009.8R
N MID LAKE BUOY  0050   74 70  280/ 14/ 16 1009.2R         3/ 4
S GREEN BAY BUOY 0000   71 67  280/ 10/ 14 1012.4
SISTER BAY LKSHO 0044   77     300/ 17/ 19   N/A
STURGEON BAY CG  0000   80     290/  8     1010.7      6   1
CHAMBERS ISLAND  0000   77     290/  3/  9 1010.2R
MENOMINEE LKSHOR 0000   80                   N/A
$$


USA.gov is the U.S. government's official web portal to all federal, state and local government web resources and services.